This demonstration page uses our WeatherBlox Daily Observations layout. Learn more.

Left ArrowRight Arrow

Hourly Observations for October 28, 2021

Temp ( °F °C ) Dew Point ( °F °C ) Humidity (%) Winds ( mph kmh ) Pressure ( in mb ) Visibility ( mi km ) Precip ( " mm )
12:53 am 00:53 Clear 58 14.4 51 10.6 78 78 NW 5 7 30.24 1024 10 16 0.00 0.00
1:53 am 01:53 Clear 59 15 51 10.6 75 75 NNW 5 7 30.23 1024 10 16 0.00 0.00
2:53 am 02:53 Clear 58 14.4 51 10.6 78 78 NNW 7 11 30.22 1023 10 16 0.00 0.00
3:53 am 03:53 Clear 59 15 51 10.6 75 75 NNW 6 9 30.20 1023 10 16 0.00 0.00
4:53 am 04:53 Clear 58 14.4 51 10.6 78 78 NNW 5 7 30.19 1023 10 16 0.00 0.00
5:53 am 05:53 Clear 57 13.9 51 10.6 81 81 NNW 3 6 30.19 1022 10 16 0.00 0.00
6:53 am 06:53 Clear 53 11.7 49 9.4 86 86 Calm 30.19 1022 10 16 0.00 0.00
7:53 am 07:53 Sunny 56 13.3 50 10 81 81 NW 5 7 30.18 1022 10 16 0.00 0.00
8:53 am 08:53 Sunny 61 16.1 51 10.6 70 70 NW 7 11 30.19 1022 10 16 0.00 0.00
9:53 am 09:53 Sunny 67 19.4 52 11.1 59 59 NW 5 7 30.19 1022 10 16 0.00 0.00
10:53 am 10:53 Sunny 73 22.8 50 10 44 44 N 7 11 30.17 1022 10 16 0.00 0.00
11:53 am 11:53 Sunny 76 24.4 50 10 40 40 N 5 7 30.15 1021 7 11 0.00 0.00
12:53 pm 12:53 Sunny 78 25.6 50 10 37 37 Calm 30.12 1020 9 14 0.00 0.00
1:53 pm 13:53 Sunny 76 24.4 55 12.8 48 48 S 7 11 30.08 1019 10 16 0.00 0.00
2:53 pm 14:53 Sunny 76 24.4 54 12.2 47 47 SSE 6 9 30.07 1018 10 16 0.00 0.00
3:53 pm 15:53 Sunny 77 25 55 12.8 47 47 SSE 7 11 30.05 1018 10 16 0.00 0.00
4:53 pm 16:53 Sunny 76 24.4 56 13.3 50 50 SSE 9 15 30.03 1017 10 16 0.00 0.00
5:53 pm 17:53 Sunny 71 21.7 58 14.4 63 63 SSE 8 13 30.02 1017 10 16 0.00 0.00
6:53 pm 18:53 Clear 67 19.4 57 13.9 71 71 SE 6 9 30.03 1017 10 16 0.00 0.00
7:53 pm 19:53 Clear 64 17.8 57 13.9 78 78 Calm 30.04 1017 10 16 0.00 0.00
8:53 pm 20:53 Clear 61 16.1 56 13.3 84 84 Calm 30.04 1017 10 16 0.00 0.00
9:53 pm 21:53 Clear 60 15.6 56 13.3 86 86 N 3 6 30.04 1017 10 16 0.00 0.00
10:53 pm 22:53 Clear 58 14.4 55 12.8 90 90 NW 3 6 30.04 1017 10 16 0.00 0.00
11:53 pm 23:53 Clear 56 13.3 54 12.2 93 93 Calm 30.03 1017 10 16 0.00 0.00

Powered by AerisWeather